Location: Unspecified
(0.0000°N, 0.0000°E)
Time: 18:07:37
(UTC+02:00)

NOSS 3-3 (A) - Visible Passes

Search period start: 24 October 2014 00:00
Search period end: 02 November 2014 23:00
Orbit: 969 x 1244 km, 63.4° (Epoch: 19 October)

Date Brightness Start Highest point End Pass type
(mag) Time Alt. Az. Time Alt. Az. Time Alt. Az.
24 Oct 6.5 21:31:48 10° WNW 21:37:54 25° WSW 21:44:01 10° SSW visible
25 Oct 5.6 20:45:58 10° NW 20:53:17 46° WSW 21:00:36 10° S visible
26 Oct 7.2 05:37:56 10° SE 05:40:19 12° ESE 05:42:41 10° E visible
26 Oct 4.8 19:00:56 10° NNW 19:08:41 80° WSW 19:16:27 10° SSE visible
27 Oct 7.2 20:10:12 10° WNW 20:14:55 17° WSW 20:19:38 10° SSW visible
28 Oct 5.6 05:56:04 10° S 06:01:54 39° ESE 06:07:41 10° NE visible
28 Oct 6.5 19:23:34 10° NW 19:30:15 32° WSW 19:36:56 10° S visible
29 Oct 6.6 05:12:54 10° SSE 05:17:18 20° ESE 05:21:40 10° ENE visible
30 Oct 4.0 06:17:04 10° SSW 06:23:22 72° WNW 06:29:40 10° NNE visible
30 Oct 7.7 19:50:17 10° WSW 19:51:57 11° WSW 19:53:37 10° SW visible
31 Oct 4.6 05:32:36 10° SSW 05:38:50 59° ESE 05:45:01 10° NE visible
31 Oct 7.2 19:01:35 10° WNW 19:07:14 22° WSW 19:12:54 10° SSW visible
01 Nov 5.8 04:48:50 10° S 04:54:16 30° ESE 04:59:39 10° NE visible
02 Nov 6.7 04:06:17 10° SSE 04:09:39 15° ESE 04:13:00 10° E visible
02 Nov 4.2 05:54:16 10° SW 06:00:17 47° WNW 06:06:19 10° N visible
